GW0484 Weather Reports


time (UTC)temp
F
wind
direction
speed
knots
gust
knots
rain 1hr
in
rain 24hr
in
rain mn
in
humidity
%
barometer
mb
20260503013858 0 109 2.6 2.6 0.00 0.00 0.00 1011.0
20260503013354 0 90 1.7 1.7 0.00 0.00 0.00 1011.1
20260503012851 0 84 3.5 5.2 0.00 0.00 0.00 1011.1
20260503012349 0 66 3.5 4.3 0.00 0.00 0.00 1011.0
20260503011846 0 88 2.6 4.3 0.00 0.00 0.00 1011.0
20260503011343 0 83 0.0 0.0 0.00 0.00 0.00 1010.7
20260503010839 0 42 0.9 1.7 0.00 0.00 0.00 1011.1
20260503010336 0 116 0.0 0.0 0.00 0.00 0.00 1011.3
20260503005833 0 148 0.0 0.0 0.00 0.00 0.00 1011.5
20260503005331 0 128 0.0 0.0 0.00 0.00 0.00 1011.2
20260503004826 0 111 0.0 0.0 0.00 0.00 0.00 1011.5
20260503004325 0 107 0.0 0.0 0.00 0.00 0.00 1011.2
20260503003822 0 88 1.7 1.7 0.00 0.00 0.00 1011.5
20260503003318 0 96 2.6 2.6 0.00 0.00 0.00 1011.5
20260503002815 0 79 2.6 2.6 0.00 0.00 0.00 1011.6
20260503002313 0 93 0.0 0.9 0.00 0.00 0.00 1011.7
20260503001809 0 90 0.0 0.0 0.00 0.00 0.00 1011.7
20260503001305 0 106 0.0 0.0 0.00 0.00 0.00 1011.6
20260503000803 0 99 0.0 0.9 0.00 0.00 0.00 1011.7
20260503000300 0 99 0.0 0.0 0.00 0.00 0.00 1011.8
20260502235757 0 96 0.0 0.0 0.00 0.00 0.00 1011.8
20260502235255 0 14 3.5 4.3 0.00 0.00 0.00 1011.7
20260502234751 0 53 4.3 5.2 0.00 0.00 0.00 1011.7
20260502234248 0 79 2.6 2.6 0.00 0.00 0.00 1011.6
20260502233744 0 149 0.0 0.0 0.00 0.00 0.00 1011.7
20260502233241 0 132 0.0 0.9 0.00 0.00 0.00 1012.2
20260502232737 0 207 3.5 5.2 0.00 0.00 0.00 1012.2
20260502232234 0 81 0.9 1.7 0.00 0.00 0.00 1012.0
20260502231730 0 76 0.0 0.0 0.00 0.00 0.00 1012.3
20260502231228 0 10 1.7 2.6 0.00 0.00 0.00 1012.2
20260502230727 0 20 4.3 5.2 0.00 0.00 0.00 1012.4
20260502230225 0 90 0.9 1.7 0.00 0.00 0.00 1012.5
20260502225720 0 93 0.0 0.0 0.00 0.00 0.00 1012.4
20260502225218 0 87 0.0 0.0 0.00 0.00 0.00 1012.5
20260502224714 0 39 0.0 0.0 0.00 0.00 0.00 1012.5
20260502224211 0 100 0.0 0.0 0.00 0.00 0.00 1012.6
20260502223708 0 20 6.1 7.0 0.00 0.00 0.00 1012.7
20260502223206 0 83 4.3 5.2 0.00 0.00 0.00 1012.7
20260502222704 0 27 1.7 1.7 0.00 0.00 0.00 1012.9
20260502222200 0 297 2.6 2.6 0.00 0.00 0.00 1012.9
20260502221656 0 131 0.0 0.0 0.00 0.00 0.00 1013.0
20260502221153 0 183 2.6 2.6 0.00 0.00 0.00 1012.8
20260502220649 0 89 0.9 0.9 0.00 0.00 0.00 1012.9
20260502220145 0 305 5.2 7.0 0.00 0.00 0.00 1013.4
20260502215643 0 284 2.6 5.2 0.00 0.00 0.00 1013.1
20260502215139 0 119 0.9 0.9 0.00 0.00 0.00 1013.2
20260502214637 0 68 1.7 2.6 0.00 0.00 0.00 1013.5
20260502214134 0 116 0.0 0.0 0.00 0.00 0.00 1013.5
20260502213631 0 77 0.0 0.9 0.00 0.00 0.00 1013.6
20260502213128 0 304 4.3 5.2 0.00 0.00 0.00 1013.6
20260502212627 0 181 3.5 4.3 0.00 0.00 0.00 1013.5
20260502212125 0 237 0.9 1.7 0.00 0.00 0.00 1013.8
20260502211620 0 52 1.7 1.7 0.00 0.00 0.00 1014.0
20260502211118 0 232 0.0 0.0 0.00 0.00 0.00 1013.9
20260502210615 0 8 0.9 1.7 0.00 0.00 0.00 1014.1
20260502210112 0 256 4.3 5.2 0.00 0.00 0.00 1014.0
20260502205608 0 5 2.6 2.6 0.00 0.00 0.00 1014.1
20260502205106 0 141 0.0 1.7 0.00 0.00 0.00 1014.1
20260502204602 0 119 4.3 6.1 0.00 0.00 0.00 1014.1
20260502204100 0 270 2.6 4.3 0.00 0.00 0.00 1014.1
20260502203556 0 46 2.6 2.6 0.00 0.00 0.00 1014.2
20260502203054 0 289 3.5 4.3 0.00 0.00 0.00 1014.3
20260502202549 0 124 0.0 0.0 0.00 0.00 0.00 1014.2
20260502202048 0 253 3.5 4.3 0.00 0.00 0.00 1014.5
20260502201544 0 130 0.9 0.9 0.00 0.00 0.00 1014.5
20260502201040 0 14 4.3 5.2 0.00 0.00 0.00 1014.7
20260502200536 0 352 7.8 11.3 0.00 0.00 0.00 1014.8
20260502200034 0 21 10.4 11.3 0.00 0.00 0.00 1014.7
20260502195532 0 44 2.6 4.3 0.00 0.00 0.00 1014.8
20260502195027 0 326 5.2 7.0 0.00 0.00 0.00 1014.9
20260502194524 0 68 7.0 9.6 0.00 0.00 0.00 1014.7
20260502194020 0 43 7.0 8.7 0.00 0.00 0.00 1014.8
20260502193518 0 42 10.4 13.0 0.00 0.00 0.00 1015.0
20260502193015 0 8 6.1 8.7 0.00 0.00 0.00 1014.8
20260502192510 0 357 6.1 7.8 0.00 0.00 0.00 1014.8
20260502192008 0 300 3.5 5.2 0.00 0.00 0.00 1015.2
20260502191505 0 27 7.8 8.7 0.00 0.00 0.00 1015.0
20260502191003 0 36 7.8 9.6 0.00 0.00 0.00 1014.9
20260502190500 0 70 2.6 4.3 0.00 0.00 0.00 1015.0
20260502185956 0 30 2.6 2.6 0.00 0.00 0.00 1015.0
20260502185451 0 20 5.2 6.1 0.00 0.00 0.00 1015.0
20260502184949 0 82 1.7 1.7 0.00 0.00 0.00 1015.0
20260502184444 0 341 5.2 7.8 0.00 0.00 0.00 1015.1
20260502183941 0 51 6.1 7.8 0.00 0.00 0.00 1015.0
20260502183437 0 118 2.6 2.6 0.00 0.00 0.00 1015.2
20260502182932 0 157 0.9 1.7 0.00 0.00 0.00 1015.2
20260502182428 0 44 5.2 6.1 0.00 0.00 0.00 1015.1
20260502181924 0 90 0.0 0.0 0.00 0.00 0.00 1015.2
20260502181423 0 286 5.2 7.8 0.00 0.00 0.00 1015.2
20260502180921 0 75 1.7 2.6 0.00 0.00 0.00 1015.2
20260502180418 0 76 4.3 6.1 0.00 0.00 0.00 1015.1
20260502170336 0 12 5.2 6.1 0.00 0.00 0.00 1016.0
20260502164324 0 28 6.1 7.8 0.00 0.00 0.00 1015.7
20260502163820 0 62 9.6 11.3 0.00 0.00 0.00 1015.7
20260502163316 0 66 6.1 7.8 0.00 0.00 0.00 1015.7
20260502162814 0 26 7.0 12.2 0.00 0.00 0.00 1015.5
20260502162310 0 56 4.3 6.1 0.00 0.00 0.00 1015.4
20260502161808 0 28 6.1 7.0 0.00 0.00 0.00 1015.8
20260502161303 0 34 6.1 7.0 0.00 0.00 0.00 1015.8
20260502160801 0 9 5.2 7.0 0.00 0.00 0.00 1015.7
20260502160301 0 16 6.1 7.8 0.00 0.00 0.00 1015.9
20260502152229 0 33 5.2 8.7 0.00 0.00 0.00 1015.5
20260502151727 0 59 5.2 7.8 0.00 0.00 0.00 1015.5
20260502151224 0 90 6.1 7.8 0.00 0.00 0.00 1015.5
20260502150721 0 60 7.8 8.7 0.00 0.00 0.00 1015.4
20260502150218 0 89 3.5 5.2 0.00 0.00 0.00 1015.2
20260502130606 0 25 8.7 11.3 0.00 0.00 0.00 1014.6
20260502130104 0 19 9.6 11.3 0.00 0.00 0.00 1014.5
20260502123549 0 345 6.1 7.8 0.00 0.00 0.00 1014.2
20260502123046 0 356 4.3 5.2 0.00 0.00 0.00 1014.2
20260502122543 0 319 6.1 7.0 0.00 0.00 0.00 1014.2
20260502122040 0 356 6.1 7.8 0.00 0.00 0.00 1014.1
20260502121537 0 351 6.1 7.8 0.00 0.00 0.00 1013.8
20260502121035 0 17 7.8 9.6 0.00 0.00 0.00 1014.0
20260502120531 0 11 7.0 8.7 0.00 0.00 0.00 1014.0
20260502115526 0 356 12.2 13.9 0.00 0.00 0.00 1013.8
20260502115021 0 47 7.0 7.8 0.00 0.00 0.00 1014.0
20260502114518 0 10 7.0 7.8 0.00 0.00 0.00 1013.8
20260502114015 0 10 6.1 7.8 0.00 0.00 0.00 1013.7
20260502113513 0 130 1.7 2.6 0.00 0.00 0.00 1013.2
20260502113012 0 108 1.7 2.6 0.00 0.00 0.00 1013.5
20260502112509 0 39 3.5 4.3 0.00 0.00 0.00 1013.6
20260502112006 0 107 0.0 0.9 0.00 0.00 0.00 1013.4
20260502111503 0 50 1.7 2.6 0.00 0.00 0.00 1013.2
20260502111001 0 28 4.3 5.2 0.00 0.00 0.00 1013.1
20260502110458 0 80 2.6 2.6 0.00 0.00 0.00 1013.1
20260502105955 0 103 0.0 0.0 0.00 0.00 0.00 1013.0
20260502105453 0 19 1.7 2.6 0.00 0.00 0.00 1012.9
20260502104950 0 109 0.0 0.0 0.00 0.00 0.00 1012.8
20260502104447 0 99 0.9 1.7 0.00 0.00 0.00 1012.7
20260502103944 0 52 3.5 4.3 0.00 0.00 0.00 1012.5
20260502103442 0 28 4.3 5.2 0.00 0.00 0.00 1012.5
20260502102939 0 5 2.6 5.2 0.00 0.00 0.00 1012.7
20260502102436 0 350 6.1 8.7 0.00 0.00 0.00 1012.4
20260502101932 0 12 4.3 5.2 0.00 0.00 0.00 1012.4
20260502101431 0 97 0.0 0.9 0.00 0.00 0.00 1012.3
20260502100929 0 110 0.0 0.0 0.00 0.00 0.00 1012.4
20260502100428 0 106 0.0 0.0 0.00 0.00 0.00 1012.2
20260502091402 0 278 3.5 4.3 0.00 0.00 0.00 1011.7
20260502090859 0 285 6.1 7.0 0.00 0.00 0.00 1011.6
20260502090356 0 258 4.3 4.3 0.00 0.00 0.00 1011.6
20260502071251 0 127 0.0 0.0 0.00 0.00 0.00 1011.2
20260502070749 0 119 0.0 0.0 0.00 0.00 0.00 1011.2
20260502070246 0 118 0.0 0.0 0.00 0.00 0.00 1011.2
20260502065745 0 130 0.0 0.0 0.00 0.00 0.00 1011.1
20260502065243 0 140 0.9 0.9 0.00 0.00 0.00 1011.2
20260502064741 0 230 2.6 2.6 0.00 0.00 0.00 1011.2
20260502064238 0 174 0.9 0.9 0.00 0.00 0.00 1011.0
20260502063735 0 108 0.0 0.0 0.00 0.00 0.00 1011.1
20260502063233 0 108 0.0 0.0 0.00 0.00 0.00 1011.3
20260502062730 0 108 0.0 0.0 0.00 0.00 0.00 1011.3
20260502062228 0 108 0.0 0.0 0.00 0.00 0.00 1011.1
20260502061726 0 136 0.9 0.9 0.00 0.00 0.00 1011.3
20260502061223 0 183 1.7 1.7 0.00 0.00 0.00 1011.3
20260502060718 0 160 0.0 0.0 0.00 0.00 0.00 1011.1
20260502060214 0 156 0.9 1.7 0.00 0.00 0.00 1011.0
20260502055713 0 88 0.0 0.0 0.00 0.00 0.00 1011.1
20260502055210 0 87 0.0 0.0 0.00 0.00 0.00 1011.1
20260502054709 0 87 0.0 0.0 0.00 0.00 0.00 1010.8
20260502054206 0 90 0.0 0.0 0.00 0.00 0.00 1010.8
20260502053704 0 90 0.0 0.0 0.00 0.00 0.00 1011.0
20260502053201 0 36 3.5 4.3 0.00 0.00 0.00 1011.0
20260502052659 0 76 2.6 2.6 0.00 0.00 0.00 1011.0
20260502052157 0 96 0.9 1.7 0.00 0.00 0.00 1010.7
20260502051654 0 109 1.7 1.7 0.00 0.00 0.00 1010.8
20260502051152 0 120 0.0 0.0 0.00 0.00 0.00 1010.8
20260502050648 0 130 0.0 0.0 0.00 0.00 0.00 1010.7
20260502050145 0 134 0.0 0.0 0.00 0.00 0.00 1010.7
20260502045641 0 135 0.0 0.0 0.00 0.00 0.00 1010.7
20260502045139 0 120 0.0 0.0 0.00 0.00 0.00 1011.0
20260502044635 0 119 0.9 0.9 0.00 0.00 0.00 1010.7
20260502044131 0 120 0.9 1.7 0.00 0.00 0.00 1010.6
20260502043630 0 149 0.0 0.0 0.00 0.00 0.00 1010.6
20260502043121 0 149 0.0 0.0 0.00 0.00 0.00 1010.6
20260502042620 0 149 0.0 0.0 0.00 0.00 0.00 1010.7
20260502042118 0 150 0.0 0.0 0.00 0.00 0.00 1010.7
20260502041616 0 157 0.9 0.9 0.00 0.00 0.00 1010.8
20260502041113 0 140 0.0 0.0 0.00 0.00 0.00 1010.6
20260502040609 0 156 0.0 0.9 0.00 0.00 0.00 1010.6
20260502040107 0 185 0.0 0.0 0.00 0.00 0.00 1010.6
20260502035602 0 134 0.0 0.0 0.00 0.00 0.00 1010.6
20260502035100 0 134 0.0 0.0 0.00 0.00 0.00 1010.6
20260502034557 0 122 0.0 0.0 0.00 0.00 0.00 1010.5
20260502034056 0 119 0.9 1.7 0.00 0.00 0.00 1010.5
20260502033554 0 138 0.0 0.0 0.00 0.00 0.00 1010.3
20260502033051 0 140 0.0 0.0 0.00 0.00 0.00 1010.2
20260502032546 0 144 0.0 0.0 0.00 0.00 0.00 1010.3
20260502032043 0 146 0.0 0.9 0.00 0.00 0.00 1010.2
20260502031541 0 174 0.9 0.9 0.00 0.00 0.00 1010.3
20260502031039 0 264 0.9 1.7 0.00 0.00 0.00 1010.3
20260502030538 0 217 0.0 0.0 0.00 0.00 0.00 1010.3
20260502030035 0 320 2.6 2.6 0.00 0.00 0.00 1010.0
20260502025532 0 286 4.3 5.2 0.00 0.00 0.00 1010.0
20260502025030 0 274 6.1 6.1 0.00 0.00 0.00 1010.1
20260502024527 0 261 5.2 6.1 0.00 0.00 0.00 1009.9
20260502024026 0 279 5.2 6.1 0.00 0.00 0.00 1009.8
20260502023523 0 297 4.3 6.1 0.00 0.00 0.00 1009.9
20260502023020 0 277 6.1 6.1 0.00 0.00 0.00 1009.9
20260502022516 0 316 2.6 2.6 0.00 0.00 0.00 1009.6
20260502022014 0 288 1.7 1.7 0.00 0.00 0.00 1009.8
20260502021512 0 249 4.3 5.2 0.00 0.00 0.00 1009.8
20260502021008 0 241 4.3 5.2 0.00 0.00 0.00 1009.8
20260502020506 0 246 4.3 5.2 0.00 0.00 0.00 1009.5
20260502020003 0 241 4.3 5.2 0.00 0.00 0.00 1009.6
20260502015501 0 244 4.3 5.2 0.00 0.00 0.00 1009.6
20260502014956 0 235 4.3 5.2 0.00 0.00 0.00 1009.6
20260502014453 0 246 4.3 5.2 0.00 0.00 0.00 1009.5